Terminal Aerodrome Forecast
Issued by NWS Cleveland, OH

Home | Current Version | Previous Version | Text Only | Print | Product List | Glossary Off
Versions: 1 2 3 4 5 6 7 8 9 10 11 12 13 14 15 16 17 18 19 20 21 22 23 24 25 26 27 28 29

000
FTUS41 KCLE 101125
TAFCLE
TAF
KCLE 101125Z 1012/1118 23013KT P6SM BKN050
     FM101600 24015G25KT P6SM BKN070
     FM110000 24012KT P6SM OVC040
     FM110400 27012KT 5SM -SHSN OVC030 PROB30 1104/1106 2SM -SN
      OVC020
     FM110700 30010KT P6SM OVC025
     FM111500 25004KT P6SM BKN050=

USA.gov is the U.S. government's official web portal to all federal, state and local government web resources and services.